Time,TemperatureF,DewpointF,PressureIn,WindDirection,WindDirectionDegrees,WindSpeedMPH,WindSpeedGustMPH,Humidity,HourlyPrecipIn,Conditions,Clouds,dailyrainin,SoftwareType,DateUTC
2013-09-11 00:01:00,75.9,72.4,29.98,SW,225,3.5,3.5,89,0.00,CLR,,0.00,WeatherDisplay:10.37,2013-09-11 04:01:00,
2013-09-11 00:02:00,75.9,72.4,29.98,West,270,3.5,3.5,89,0.00,CLR,,0.00,WeatherDisplay:10.37,2013-09-11 04:02:00,
2013-09-11 00:03:00,75.9,72.4,29.98,WSW,248,3.5,3.5,89,0.00,CLR,,0.00,WeatherDisplay:10.37,2013-09-11 04:03:00,
2013-09-11 00:05:00,75.9,72.4,29.98,WSW,243,1.0,3.0,89,0.00,CLR,,0.00,WeatherDisplay:10.37,2013-09-11 04:05:00,
2013-09-11 00:08:00,75.7,72.2,29.98,South,180,2.7,2.7,89,0.00,CLR,,0.00,WeatherDisplay:10.37,2013-09-11 04:08:00,
2013-09-11 00:13:00,75.7,72.2,29.98,South,180,3.5,3.5,89,0.00,CLR,,0.00,WeatherDisplay:10.37,2013-09-11 04:13:00,
2013-09-11 00:18:00,75.6,72.1,29.98,SW,225,3.5,3.5,89,0.00,CLR,,0.00,WeatherDisplay:10.37,2013-09-11 04:18:00,
2013-09-11 00:23:00,75.6,72.1,29.98,SW,225,2.3,2.3,89,0.00,CLR,,0.00,WeatherDisplay:10.37,2013-09-11 04:23:00,
2013-09-11 00:28:00,75.6,72.1,29.98,SW,225,3.5,3.5,89,0.00,CLR,,0.00,WeatherDisplay:10.37,2013-09-11 04:28:00,
2013-09-11 00:33:00,75.4,71.9,29.98,WSW,248,3.5,3.5,89,0.00,CLR,,0.00,WeatherDisplay:10.37,2013-09-11 04:33:00,
2013-09-11 00:38:00,75.4,71.9,29.98,West,270,3.5,3.5,89,0.00,CLR,,0.00,WeatherDisplay:10.37,2013-09-11 04:38:00,
2013-09-11 00:43:00,75.4,71.9,29.98,SSW,202,3.5,3.5,89,0.00,CLR,,0.00,WeatherDisplay:10.37,2013-09-11 04:43:00,
2013-09-11 00:48:00,75.2,71.7,29.98,SW,225,2.3,2.3,89,0.00,CLR,,0.00,WeatherDisplay:10.37,2013-09-11 04:48:00,
2013-09-11 00:53:00,75.2,72.1,29.98,SSW,202,3.7,3.8,90,0.00,CLR,,0.00,WeatherDisplay:10.37,2013-09-11 04:53:00,
2013-09-11 00:58:00,75.2,72.1,29.98,West,270,4.6,4.6,90,0.00,CLR,,0.00,WeatherDisplay:10.37,2013-09-11 04:58:00,
2013-09-11 01:03:00,75.0,71.9,29.98,West,270,2.3,2.3,90,0.00,CLR,,0.00,WeatherDisplay:10.37,2013-09-11 05:03:00,
2013-09-11 01:08:00,75.0,71.9,29.98,West,270,2.3,2.3,90,0.00,CLR,,0.00,WeatherDisplay:10.37,2013-09-11 05:08:00,
2013-09-11 01:13:00,74.8,71.7,29.98,SSW,202,2.3,0.0,90,0.00,CLR,,0.00,WeatherDisplay:10.37,2013-09-11 05:13:00,
2013-09-11 01:18:00,74.8,71.7,29.98,SW,225,1.7,1.7,90,0.00,CLR,,0.00,WeatherDisplay:10.37,2013-09-11 05:18:00,
2013-09-11 01:23:00,74.7,71.6,29.98,SW,225,3.5,3.5,90,0.00,CLR,,0.00,WeatherDisplay:10.37,2013-09-11 05:23:00,
2013-09-11 01:28:00,74.7,71.6,29.98,SSW,202,3.5,3.5,90,0.00,CLR,,0.00,WeatherDisplay:10.37,2013-09-11 05:28:00,
2013-09-11 01:33:00,74.7,71.6,29.98,SSW,202,2.3,2.3,90,0.00,CLR,,0.00,WeatherDisplay:10.37,2013-09-11 05:33:00,
2013-09-11 01:38:00,74.5,71.4,29.98,SSW,202,1.1,1.1,90,0.00,CLR,,0.00,WeatherDisplay:10.37,2013-09-11 05:38:00,
2013-09-11 01:43:00,74.5,71.4,29.98,WSW,248,3.7,3.7,90,0.00,CLR,,0.00,WeatherDisplay:10.37,2013-09-11 05:43:00,
2013-09-11 01:48:00,74.5,71.4,29.97,South,180,4.6,4.6,90,0.00,CLR,,0.00,WeatherDisplay:10.37,2013-09-11 05:48:00,
2013-09-11 01:53:00,74.3,71.2,29.97,SW,225,4.6,4.6,90,0.00,CLR,,0.00,WeatherDisplay:10.37,2013-09-11 05:53:00,
2013-09-11 01:58:00,74.3,71.5,29.97,WSW,248,4.6,4.6,91,0.00,CLR,,0.00,WeatherDisplay:10.37,2013-09-11 05:58:00,
2013-09-11 02:03:00,74.1,71.3,29.97,SSW,202,1.1,1.1,91,0.00,CLR,,0.00,WeatherDisplay:10.37,2013-09-11 06:03:00,
2013-09-11 02:08:00,74.1,71.3,29.97,SSW,202,3.5,3.5,91,0.00,CLR,,0.00,WeatherDisplay:10.37,2013-09-11 06:08:00,
2013-09-11 02:13:00,74.1,71.3,29.97,West,270,2.7,2.7,91,0.00,CLR,,0.00,WeatherDisplay:10.37,2013-09-11 06:13:00,
2013-09-11 02:18:00,73.9,71.1,29.97,SSW,202,2.2,2.2,91,0.00,CLR,,0.00,WeatherDisplay:10.37,2013-09-11 06:18:00,
2013-09-11 02:23:00,73.9,71.1,29.97,SSW,202,2.3,2.3,91,0.00,CLR,,0.00,WeatherDisplay:10.37,2013-09-11 06:23:00,
2013-09-11 02:28:00,73.8,71.0,29.97,SW,225,2.3,2.4,91,0.00,CLR,,0.00,WeatherDisplay:10.37,2013-09-11 06:28:00,
2013-09-11 02:33:00,73.8,71.0,29.97,SSW,202,3.5,3.5,91,0.00,CLR,,0.00,WeatherDisplay:10.37,2013-09-11 06:33:00,
2013-09-11 02:38:00,73.8,71.0,29.97,WSW,248,2.3,2.3,91,0.00,CLR,,0.00,WeatherDisplay:10.37,2013-09-11 06:38:00,
2013-09-11 02:43:00,73.8,71.3,29.97,SW,225,3.7,3.7,92,0.00,CLR,,0.00,WeatherDisplay:10.37,2013-09-11 06:43:00,
2013-09-11 02:48:00,73.8,71.3,29.97,SW,225,2.2,2.2,92,0.00,CLR,,0.00,WeatherDisplay:10.37,2013-09-11 06:48:00,
2013-09-11 02:53:00,73.6,71.1,29.97,SSW,202,2.7,2.7,92,0.00,CLR,,0.00,WeatherDisplay:10.37,2013-09-11 06:53:00,
2013-09-11 02:58:00,73.6,71.1,29.97,SSW,202,1.1,0.0,92,0.00,CLR,,0.00,WeatherDisplay:10.37,2013-09-11 06:58:00,
2013-09-11 03:03:00,73.6,71.1,29.97,WSW,248,3.7,3.7,92,0.00,CLR,,0.00,WeatherDisplay:10.37,2013-09-11 07:03:00,
2013-09-11 03:08:00,73.6,71.1,29.97,SSW,202,2.2,2.2,92,0.00,CLR,,0.00,WeatherDisplay:10.37,2013-09-11 07:08:00,
2013-09-11 03:13:00,73.4,70.9,29.96,West,270,1.1,1.1,92,0.00,CLR,,0.00,WeatherDisplay:10.37,2013-09-11 07:13:00,
2013-09-11 03:18:00,73.4,70.9,29.96,SW,225,2.3,0.0,92,0.00,CLR,,0.00,WeatherDisplay:10.37,2013-09-11 07:18:00,
2013-09-11 03:23:00,73.2,70.7,29.96,SW,225,3.2,3.2,92,0.00,CLR,,0.00,WeatherDisplay:10.37,2013-09-11 07:23:00,
2013-09-11 03:28:00,73.2,70.7,29.96,WSW,248,2.2,2.2,92,0.00,CLR,,0.00,WeatherDisplay:10.37,2013-09-11 07:28:00,
2013-09-11 03:33:00,73.2,70.7,29.96,West,270,2.2,2.2,92,0.00,CLR,,0.00,WeatherDisplay:10.37,2013-09-11 07:33:00,
2013-09-11 03:38:00,73.2,71.1,29.96,SW,225,2.3,2.3,93,0.00,CLR,,0.00,WeatherDisplay:10.37,2013-09-11 07:38:00,
2013-09-11 03:43:00,73.2,71.1,29.96,SW,225,2.7,2.7,93,0.00,CLR,,0.00,WeatherDisplay:10.37,2013-09-11 07:43:00,
2013-09-11 03:48:00,73.2,71.1,29.96,SW,225,2.3,2.3,93,0.00,CLR,,0.00,WeatherDisplay:10.37,2013-09-11 07:48:00,
2013-09-11 03:53:00,73.0,70.9,29.96,SSW,202,1.1,1.1,93,0.00,CLR,,0.00,WeatherDisplay:10.37,2013-09-11 07:53:00,
2013-09-11 03:58:00,73.0,70.9,29.96,SW,225,2.3,2.3,93,0.00,CLR,,0.00,WeatherDisplay:10.37,2013-09-11 07:58:00,
2013-09-11 04:03:00,72.9,70.8,29.96,SW,225,2.3,2.3,93,0.00,CLR,,0.00,WeatherDisplay:10.37,2013-09-11 08:03:00,
2013-09-11 04:08:00,72.9,70.8,29.96,SSW,202,1.1,1.6,93,0.00,CLR,,0.00,WeatherDisplay:10.37,2013-09-11 08:08:00,
2013-09-11 04:13:00,72.9,70.8,29.96,SW,225,2.2,2.2,93,0.00,CLR,,0.00,WeatherDisplay:10.37,2013-09-11 08:13:00,
2013-09-11 04:18:00,72.9,70.8,29.96,SW,225,2.7,2.7,93,0.00,CLR,,0.00,WeatherDisplay:10.37,2013-09-11 08:18:00,
2013-09-11 04:23:00,72.7,70.6,29.96,WSW,248,1.1,1.1,93,0.00,CLR,,0.00,WeatherDisplay:10.37,2013-09-11 08:23:00,
2013-09-11 04:28:00,72.7,70.9,29.96,SW,225,2.3,2.3,94,0.00,CLR,,0.00,WeatherDisplay:10.37,2013-09-11 08:28:00,
2013-09-11 04:33:00,72.7,70.9,29.96,SSW,202,0.0,1.0,94,0.00,CLR,,0.00,WeatherDisplay:10.37,2013-09-11 08:33:00,
2013-09-11 04:38:00,72.5,70.7,29.96,South,180,0.0,0.0,94,0.00,CLR,,0.00,WeatherDisplay:10.37,2013-09-11 08:38:00,
2013-09-11 04:43:00,72.5,70.7,29.96,SSW,202,0.0,0.0,94,0.00,CLR,,0.00,WeatherDisplay:10.37,2013-09-11 08:43:00,
2013-09-11 04:48:00,72.5,70.7,29.96,SSW,202,0.0,0.0,94,0.00,CLR,,0.00,WeatherDisplay:10.37,2013-09-11 08:48:00,
2013-09-11 04:53:00,72.5,70.7,29.96,SSW,202,2.3,2.3,94,0.00,CLR,,0.00,WeatherDisplay:10.37,2013-09-11 08:53:00,
2013-09-11 04:58:00,72.5,70.7,29.96,WSW,248,0.0,0.0,94,0.00,CLR,,0.00,WeatherDisplay:10.37,2013-09-11 08:58:00,
2013-09-11 05:03:00,72.5,70.7,29.96,SW,225,2.3,2.3,94,0.00,CLR,,0.00,WeatherDisplay:10.37,2013-09-11 09:03:00,
2013-09-11 05:08:00,72.5,70.7,29.96,WSW,248,2.3,2.3,94,0.00,CLR,,0.00,WeatherDisplay:10.37,2013-09-11 09:08:00,
2013-09-11 05:13:00,72.5,70.7,29.96,WSW,248,2.2,2.2,94,0.00,CLR,,0.00,WeatherDisplay:10.37,2013-09-11 09:13:00,
2013-09-11 05:18:00,72.5,70.7,29.96,SSW,202,2.3,2.3,94,0.00,CLR,,0.00,WeatherDisplay:10.37,2013-09-11 09:18:00,
2013-09-11 05:23:00,72.3,70.5,29.97,West,270,1.7,1.7,94,0.00,CLR,,0.00,WeatherDisplay:10.37,2013-09-11 09:23:00,
2013-09-11 05:28:00,72.3,70.5,29.97,SSW,202,2.7,3.2,94,0.00,CLR,,0.00,WeatherDisplay:10.37,2013-09-11 09:28:00,
2013-09-11 05:33:00,72.3,70.5,29.97,SW,225,2.3,2.3,94,0.00,CLR,,0.00,WeatherDisplay:10.37,2013-09-11 09:33:00,
2013-09-11 05:38:00,72.3,70.5,29.97,ESE,112,0.0,0.0,94,0.00,CLR,,0.00,WeatherDisplay:10.37,2013-09-11 09:38:00,
2013-09-11 05:43:00,72.1,70.3,29.97,WSW,248,1.7,1.7,94,0.00,CLR,,0.00,WeatherDisplay:10.37,2013-09-11 09:43:00,
2013-09-11 05:48:00,72.1,70.3,29.97,WSW,248,2.3,2.3,94,0.00,CLR,,0.00,WeatherDisplay:10.37,2013-09-11 09:48:00,
2013-09-11 05:53:00,72.1,70.3,29.97,SSW,202,2.7,2.9,94,0.00,CLR,,0.00,WeatherDisplay:10.37,2013-09-11 09:53:00,
2013-09-11 05:58:00,72.1,70.3,29.97,West,270,1.1,1.1,94,0.00,CLR,,0.00,WeatherDisplay:10.37,2013-09-11 09:58:00,
2013-09-11 06:03:00,72.1,70.6,29.97,SW,225,3.5,3.5,95,0.00,CLR,,0.00,WeatherDisplay:10.37,2013-09-11 10:03:00,
2013-09-11 06:08:00,72.1,70.6,29.97,WSW,248,2.7,2.8,95,0.00,CLR,,0.00,WeatherDisplay:10.37,2013-09-11 10:08:00,
2013-09-11 06:13:00,72.1,70.6,29.98,SSW,202,2.3,2.5,95,0.00,CLR,,0.00,WeatherDisplay:10.37,2013-09-11 10:13:00,
2013-09-11 06:18:00,72.1,70.6,29.98,SSW,202,3.5,3.5,95,0.00,CLR,,0.00,WeatherDisplay:10.37,2013-09-11 10:18:00,
2013-09-11 06:23:00,72.3,70.8,29.98,SSW,202,3.5,3.5,95,0.00,CLR,,0.00,WeatherDisplay:10.37,2013-09-11 10:23:00,
2013-09-11 06:28:00,72.3,70.8,29.98,SW,225,2.3,2.3,95,0.00,CLR,,0.00,WeatherDisplay:10.37,2013-09-11 10:28:00,
2013-09-11 06:33:00,72.3,70.8,29.98,SSW,202,3.5,3.5,95,0.00,SCT,,0.00,WeatherDisplay:10.37,2013-09-11 10:33:00,
2013-09-11 06:38:00,72.3,70.8,29.98,SSW,202,2.7,2.7,95,0.00,SCT,,0.00,WeatherDisplay:10.37,2013-09-11 10:38:00,
2013-09-11 06:43:00,72.1,70.6,29.98,WSW,248,2.3,2.3,95,0.00,SCT,,0.00,WeatherDisplay:10.37,2013-09-11 10:43:00,
2013-09-11 06:48:00,72.1,70.6,29.98,WSW,248,2.7,2.7,95,0.00,SCT,,0.00,WeatherDisplay:10.37,2013-09-11 10:48:00,
2013-09-11 06:53:00,71.8,70.3,29.98,West,270,2.7,2.7,95,0.00,SCT,,0.00,WeatherDisplay:10.37,2013-09-11 10:53:00,
2013-09-11 06:58:00,71.8,70.3,29.98,SW,225,3.5,3.5,95,0.00,SCT,,0.00,WeatherDisplay:10.37,2013-09-11 10:58:00,
2013-09-11 07:03:00,71.8,70.3,29.98,SW,225,4.6,4.6,95,0.00,CLR,,0.00,WeatherDisplay:10.37,2013-09-11 11:03:00,
2013-09-11 07:08:00,71.8,70.3,29.98,WSW,248,3.5,3.5,95,0.00,CLR,,0.00,WeatherDisplay:10.37,2013-09-11 11:08:00,
2013-09-11 07:13:00,71.8,70.3,29.98,SW,225,3.5,3.5,95,0.00,CLR,,0.00,WeatherDisplay:10.37,2013-09-11 11:13:00,
2013-09-11 07:18:00,72.0,70.5,29.98,SSW,202,4.6,4.6,95,0.00,CLR,,0.00,WeatherDisplay:10.37,2013-09-11 11:18:00,
2013-09-11 07:23:00,72.1,70.6,29.98,SW,225,3.5,3.5,95,0.00,CLR,,0.00,WeatherDisplay:10.37,2013-09-11 11:23:00,
2013-09-11 07:28:00,72.3,70.8,29.98,SSE,158,2.3,2.3,95,0.00,CLR,,0.00,WeatherDisplay:10.37,2013-09-11 11:28:00,
2013-09-11 07:33:00,72.5,70.7,29.98,SW,225,4.6,4.6,94,0.00,CLR,,0.00,WeatherDisplay:10.37,2013-09-11 11:33:00,
2013-09-11 07:38:00,72.7,70.9,29.99,WSW,248,3.2,3.2,94,0.00,CLR,,0.00,WeatherDisplay:10.37,2013-09-11 11:38:00,
2013-09-11 07:43:00,73.0,70.9,29.99,ESE,112,2.3,2.3,93,0.00,CLR,,0.00,WeatherDisplay:10.37,2013-09-11 11:43:00,
2013-09-11 07:48:00,73.2,70.7,29.99,WSW,248,3.5,3.5,92,0.00,CLR,,0.00,WeatherDisplay:10.37,2013-09-11 11:48:00,
2013-09-11 07:53:00,73.6,71.1,29.99,SSE,158,3.5,3.5,92,0.00,CLR,,0.00,WeatherDisplay:10.37,2013-09-11 11:53:00,
2013-09-11 07:58:00,73.8,71.0,29.99,SW,225,3.5,3.5,91,0.00,CLR,,0.00,WeatherDisplay:10.37,2013-09-11 11:58:00,
2013-09-11 08:03:00,74.1,71.0,29.99,WSW,248,4.6,4.6,90,0.00,CLR,,0.00,WeatherDisplay:10.37,2013-09-11 12:03:00,
2013-09-11 08:08:00,74.5,71.4,29.99,WSW,248,3.5,3.5,90,0.00,CLR,,0.00,WeatherDisplay:10.37,2013-09-11 12:08:00,
2013-09-11 08:13:00,75.0,71.5,29.99,WSW,248,3.5,3.5,89,0.00,CLR,,0.00,WeatherDisplay:10.37,2013-09-11 12:13:00,
2013-09-11 08:18:00,75.2,71.7,29.99,West,270,4.6,4.6,89,0.00,CLR,,0.00,WeatherDisplay:10.37,2013-09-11 12:18:00,
2013-09-11 08:23:00,75.6,71.8,29.99,SSW,202,4.7,4.7,88,0.00,CLR,,0.00,WeatherDisplay:10.37,2013-09-11 12:23:00,
2013-09-11 08:28:00,75.9,71.8,29.99,WSW,248,4.6,4.6,87,0.00,CLR,,0.00,WeatherDisplay:10.37,2013-09-11 12:28:00,
2013-09-11 08:33:00,76.3,72.1,29.99,SSW,202,4.6,4.6,87,0.00,FEW,,0.00,WeatherDisplay:10.37,2013-09-11 12:33:00,
2013-09-11 08:38:00,77.0,72.5,29.99,SW,225,5.3,5.3,86,0.00,FEW,,0.00,WeatherDisplay:10.37,2013-09-11 12:38:00,
2013-09-11 08:44:00,76.8,72.3,29.99,WSW,248,5.8,5.8,86,0.00,FEW,,0.00,WeatherDisplay:10.37,2013-09-11 12:44:00,
2013-09-11 08:49:00,76.5,72.0,29.99,SSW,202,5.8,5.8,86,0.00,FEW,,0.00,WeatherDisplay:10.37,2013-09-11 12:49:00,
2013-09-11 08:54:00,76.5,72.0,29.99,SW,225,4.6,4.6,86,0.00,FEW,,0.00,WeatherDisplay:10.37,2013-09-11 12:54:00,
2013-09-11 08:59:00,76.5,72.0,29.99,SW,225,4.6,4.6,86,0.00,FEW,,0.00,WeatherDisplay:10.37,2013-09-11 12:59:00,
2013-09-11 09:04:00,76.3,71.8,29.99,West,270,4.6,4.6,86,0.00,BKN,,0.00,WeatherDisplay:10.37,2013-09-11 13:04:00,
2013-09-11 09:09:00,77.0,72.1,29.99,SW,225,3.7,3.7,85,0.00,BKN,,0.00,WeatherDisplay:10.37,2013-09-11 13:09:00,
2013-09-11 09:14:00,77.4,72.2,30.00,SW,225,3.5,3.5,84,0.00,BKN,,0.00,WeatherDisplay:10.37,2013-09-11 13:14:00,
2013-09-11 09:19:00,77.5,72.3,30.00,South,180,4.6,4.6,84,0.00,BKN,,0.00,WeatherDisplay:10.37,2013-09-11 13:19:00,
2013-09-11 09:24:00,78.1,72.5,29.99,WSW,248,3.5,3.5,83,0.00,BKN,,0.00,WeatherDisplay:10.37,2013-09-11 13:24:00,
2013-09-11 09:29:00,78.1,72.2,29.99,SSW,202,4.6,4.6,82,0.00,BKN,,0.00,WeatherDisplay:10.37,2013-09-11 13:29:00,
2013-09-11 09:34:00,79.2,72.9,29.99,SW,225,3.5,3.5,81,0.00,BKN,,0.00,WeatherDisplay:10.37,2013-09-11 13:34:00,
2013-09-11 09:39:00,79.5,73.2,29.99,South,180,3.5,3.5,81,0.00,BKN,,0.00,WeatherDisplay:10.37,2013-09-11 13:39:00,
2013-09-11 09:44:00,79.5,73.2,29.99,SW,225,5.3,5.3,81,0.00,BKN,,0.00,WeatherDisplay:10.37,2013-09-11 13:44:00,
2013-09-11 09:49:00,79.5,73.2,29.99,WSW,248,4.7,4.7,81,0.00,BKN,,0.00,WeatherDisplay:10.37,2013-09-11 13:49:00,
2013-09-11 09:54:00,79.5,73.2,29.99,WSW,248,6.9,6.9,81,0.00,BKN,,0.00,WeatherDisplay:10.37,2013-09-11 13:54:00,
2013-09-11 09:59:00,79.5,73.2,29.99,SSW,202,5.8,5.8,81,0.00,BKN,,0.00,WeatherDisplay:10.37,2013-09-11 13:59:00,
2013-09-11 10:04:00,79.0,72.7,29.99,SW,225,4.6,4.6,81,0.00,BKN,,0.00,WeatherDisplay:10.37,2013-09-11 14:04:00,
2013-09-11 10:09:00,79.2,72.9,29.99,SW,225,3.7,3.7,81,0.00,BKN,,0.00,WeatherDisplay:10.37,2013-09-11 14:09:00,
2013-09-11 10:14:00,78.8,72.5,29.99,WSW,248,5.8,5.8,81,0.00,BKN,,0.00,WeatherDisplay:10.37,2013-09-11 14:14:00,
2013-09-11 10:19:00,78.6,73.0,29.99,West,270,3.5,3.5,83,0.00,BKN,,0.00,WeatherDisplay:10.37,2013-09-11 14:19:00,
2013-09-11 10:24:00,79.2,73.2,29.99,South,180,4.6,4.6,82,0.00,BKN,,0.00,WeatherDisplay:10.37,2013-09-11 14:24:00,
2013-09-11 10:29:00,80.1,73.4,29.99,SW,225,5.8,5.8,80,0.00,BKN,,0.00,WeatherDisplay:10.37,2013-09-11 14:29:00,
2013-09-11 10:34:00,80.4,73.7,29.99,SSW,202,4.6,4.6,80,0.00,BKN,,0.00,WeatherDisplay:10.37,2013-09-11 14:34:00,
2013-09-11 10:39:00,79.3,73.0,29.99,SSW,202,6.8,6.8,81,0.00,BKN,,0.00,WeatherDisplay:10.37,2013-09-11 14:39:00,
2013-09-11 10:44:00,80.1,73.7,29.99,SE,135,6.9,6.9,81,0.00,BKN,,0.00,WeatherDisplay:10.37,2013-09-11 14:44:00,
2013-09-11 10:49:00,82.6,75.0,29.99,West,270,5.8,5.8,78,0.00,BKN,,0.00,WeatherDisplay:10.37,2013-09-11 14:49:00,
2013-09-11 10:54:00,81.9,74.7,29.99,SSW,202,5.8,5.8,79,0.00,BKN,,0.00,WeatherDisplay:10.37,2013-09-11 14:54:00,
2013-09-11 10:59:00,82.2,75.0,29.99,SW,225,4.7,4.7,79,0.00,BKN,,0.00,WeatherDisplay:10.37,2013-09-11 14:59:00,
2013-09-11 11:04:00,82.9,75.3,29.99,SE,135,4.2,4.2,78,0.00,SCT,,0.00,WeatherDisplay:10.37,2013-09-11 15:04:00,
2013-09-11 11:09:00,82.9,75.3,29.99,SW,225,5.8,5.8,78,0.00,SCT,,0.00,WeatherDisplay:10.37,2013-09-11 15:09:00,
2013-09-11 11:14:00,83.1,75.5,29.98,SW,225,4.6,4.6,78,0.00,SCT,,0.00,WeatherDisplay:10.37,2013-09-11 15:14:00,
2013-09-11 11:19:00,83.3,75.3,29.98,East,90,5.8,5.8,77,0.00,SCT,,0.00,WeatherDisplay:10.37,2013-09-11 15:19:00,
2013-09-11 11:24:00,83.1,75.5,29.98,SSW,202,5.8,5.8,78,0.00,SCT,,0.00,WeatherDisplay:10.37,2013-09-11 15:24:00,
2013-09-11 11:29:00,84.7,76.3,29.98,SW,225,4.7,4.7,76,0.00,SCT,,0.00,WeatherDisplay:10.37,2013-09-11 15:29:00,
2013-09-11 11:34:00,84.6,76.2,29.98,West,270,4.7,4.7,76,0.00,SCT,,0.00,WeatherDisplay:10.37,2013-09-11 15:34:00,
2013-09-11 11:39:00,84.2,76.2,29.98,West,270,6.3,6.3,77,0.00,SCT,,0.00,WeatherDisplay:10.37,2013-09-11 15:39:00,
2013-09-11 11:44:00,83.8,75.8,29.98,WSW,248,4.6,4.6,77,0.00,SCT,,0.00,WeatherDisplay:10.37,2013-09-11 15:44:00,
2013-09-11 11:49:00,85.6,76.4,29.98,SW,225,6.3,6.3,74,0.00,SCT,,0.00,WeatherDisplay:10.37,2013-09-11 15:49:00,
2013-09-11 11:54:00,86.4,77.1,29.98,ESE,112,1.1,1.9,74,0.00,SCT,,0.00,WeatherDisplay:10.37,2013-09-11 15:54:00,
2013-09-11 11:59:00,87.1,77.4,29.98,ESE,112,4.6,4.6,73,0.00,SCT,,0.00,WeatherDisplay:10.37,2013-09-11 15:59:00,
2013-09-11 12:04:00,87.1,77.8,29.98,West,270,5.8,5.8,74,0.00,FEW,,0.00,WeatherDisplay:10.37,2013-09-11 16:04:00,
2013-09-11 12:09:00,86.9,77.2,29.98,SW,225,4.6,4.6,73,0.00,FEW,,0.00,WeatherDisplay:10.37,2013-09-11 16:09:00,
2013-09-11 12:14:00,85.1,76.7,29.97,SSW,202,3.5,3.5,76,0.00,FEW,,0.00,WeatherDisplay:10.37,2013-09-11 16:14:00,
2013-09-11 12:19:00,85.1,76.3,29.97,WSW,248,5.8,5.8,75,0.00,FEW,,0.00,WeatherDisplay:10.37,2013-09-11 16:19:00,
2013-09-11 12:24:00,86.0,77.1,29.97,SW,225,3.7,3.7,75,0.00,FEW,,0.00,WeatherDisplay:10.37,2013-09-11 16:24:00,
2013-09-11 12:29:00,85.8,77.0,29.97,SSW,202,3.5,3.5,75,0.00,FEW,,0.00,WeatherDisplay:10.37,2013-09-11 16:29:00,
2013-09-11 12:34:00,86.0,76.3,29.96,WSW,248,3.5,3.5,73,0.00,FEW,,0.00,WeatherDisplay:10.37,2013-09-11 16:34:00,
2013-09-11 12:39:00,88.9,77.8,29.96,SE,135,6.9,6.9,70,0.00,FEW,,0.00,WeatherDisplay:10.37,2013-09-11 16:39:00,
2013-09-11 12:44:00,86.4,77.1,29.96,West,270,5.8,5.8,74,0.00,FEW,,0.00,WeatherDisplay:10.37,2013-09-11 16:44:00,
2013-09-11 12:49:00,86.5,77.2,29.95,SW,225,5.8,5.8,74,0.00,FEW,,0.00,WeatherDisplay:10.37,2013-09-11 16:49:00,
2013-09-11 12:54:00,88.3,77.7,29.95,SSW,202,6.3,6.3,71,0.00,FEW,,0.00,WeatherDisplay:10.37,2013-09-11 16:54:00,
2013-09-11 12:59:00,90.0,78.0,29.95,SW,225,6.9,6.9,68,0.00,FEW,,0.00,WeatherDisplay:10.37,2013-09-11 16:59:00,
2013-09-11 13:04:00,90.0,78.5,29.95,SSW,202,3.7,3.7,69,0.00,BKN,,0.00,WeatherDisplay:10.37,2013-09-11 17:04:00,
2013-09-11 13:09:00,92.5,78.5,29.95,West,270,5.8,5.8,64,0.00,BKN,,0.00,WeatherDisplay:10.37,2013-09-11 17:09:00,
2013-09-11 13:14:00,89.6,77.6,29.94,West,270,6.8,6.8,68,0.00,BKN,,0.00,WeatherDisplay:10.37,2013-09-11 17:14:00,
2013-09-11 13:19:00,88.5,77.0,29.94,SW,225,5.8,5.8,69,0.00,BKN,,0.00,WeatherDisplay:10.37,2013-09-11 17:19:00,
2013-09-11 13:24:00,88.0,76.1,29.94,SW,225,9.9,9.9,68,0.00,BKN,,0.00,WeatherDisplay:10.37,2013-09-11 17:24:00,
2013-09-11 13:29:00,84.0,73.6,29.94,SW,225,12.7,12.7,71,0.00,BKN,,0.00,WeatherDisplay:10.37,2013-09-11 17:29:00,
2013-09-11 13:34:00,82.8,72.4,29.93,West,270,10.4,10.4,71,0.00,OVC,,0.00,WeatherDisplay:10.37,2013-09-11 17:34:00,
2013-09-11 13:39:00,80.2,72.7,29.93,SW,225,12.7,12.7,78,0.00,OVC,,0.00,WeatherDisplay:10.37,2013-09-11 17:39:00,
2013-09-11 13:44:00,74.5,71.7,29.93,WSW,248,39.2,39.2,91,0.10,RA,,0.13,WeatherDisplay:10.37,2013-09-11 17:44:00,
2013-09-11 13:49:00,68.0,65.3,29.93,WSW,248,15.0,15.0,91,0.21,RA,,0.22,WeatherDisplay:10.37,2013-09-11 17:49:00,
2013-09-11 13:54:00,69.1,66.7,29.93,SW,225,5.8,5.8,92,0.23,RA,,0.23,WeatherDisplay:10.37,2013-09-11 17:54:00,
2013-09-11 13:59:00,71.6,69.2,29.93,West,270,2.7,2.7,92,0.23,RA,,0.23,WeatherDisplay:10.37,2013-09-11 17:59:00,
2013-09-11 14:04:00,74.7,72.2,29.93,SW,225,2.3,2.3,92,0.23,FEW,,0.23,WeatherDisplay:10.37,2013-09-11 18:04:00,
2013-09-11 14:09:00,77.2,74.7,29.93,SSW,202,2.3,2.3,92,0.23,FEW,,0.23,WeatherDisplay:10.37,2013-09-11 18:09:00,
2013-09-11 14:14:00,77.5,75.0,29.93,SW,225,2.3,2.3,92,0.23,FEW,,0.23,WeatherDisplay:10.37,2013-09-11 18:14:00,
2013-09-11 14:19:00,77.7,75.2,29.93,SSW,202,3.2,3.2,92,0.23,FEW,,0.23,WeatherDisplay:10.37,2013-09-11 18:19:00,
2013-09-11 14:24:00,79.3,75.4,29.92,WSW,248,2.3,2.3,88,0.23,FEW,,0.23,WeatherDisplay:10.37,2013-09-11 18:24:00,
2013-09-11 14:29:00,81.0,76.1,29.92,SSW,202,4.6,4.6,85,0.23,FEW,,0.23,WeatherDisplay:10.37,2013-09-11 18:29:00,
2013-09-11 14:34:00,81.7,76.4,29.91,SSE,158,3.5,3.5,84,0.23,FEW,,0.23,WeatherDisplay:10.37,2013-09-11 18:34:00,
2013-09-11 14:39:00,80.4,75.1,29.91,SSW,202,3.5,3.5,84,0.23,FEW,,0.23,WeatherDisplay:10.37,2013-09-11 18:39:00,
2013-09-11 14:44:00,81.5,75.8,29.91,WSW,248,3.5,3.5,83,0.22,FEW,,0.23,WeatherDisplay:10.37,2013-09-11 18:44:00,
2013-09-11 14:49:00,81.9,75.9,29.91,West,270,5.8,5.8,82,0.04,FEW,,0.23,WeatherDisplay:10.37,2013-09-11 18:49:00,
2013-09-11 14:54:00,82.2,76.2,29.91,SW,225,5.8,5.8,82,0.00,FEW,,0.23,WeatherDisplay:10.37,2013-09-11 18:54:00,
2013-09-11 14:59:00,82.8,76.4,29.90,SSW,202,5.8,5.8,81,0.00,FEW,,0.23,WeatherDisplay:10.37,2013-09-11 18:59:00,
2013-09-11 15:04:00,83.5,76.7,29.90,West,270,5.8,5.8,80,0.00,FEW,,0.23,WeatherDisplay:10.37,2013-09-11 19:04:00,
2013-09-11 15:09:00,83.7,76.9,29.90,SW,225,5.8,5.8,80,0.00,FEW,,0.23,WeatherDisplay:10.37,2013-09-11 19:09:00,
2013-09-11 15:15:00,82.4,75.6,29.89,WSW,239,5.0,8.0,80,0.00,FEW,,0.23,WeatherDisplay:10.37,2013-09-11 19:15:00,
2013-09-11 15:20:00,81.9,75.5,29.89,SW,229,3.0,6.0,81,0.00,FEW,,0.23,WeatherDisplay:10.37,2013-09-11 19:20:00,
2013-09-11 15:25:00,81.7,75.3,29.89,SW,234,3.0,7.0,81,0.00,FEW,,0.23,WeatherDisplay:10.37,2013-09-11 19:25:00,
2013-09-11 15:30:00,82.5,75.0,29.89,SW,230,6.0,9.0,78,0.00,FEW,,0.23,WeatherDisplay:10.37,2013-09-11 19:30:00,
2013-09-11 15:35:00,82.8,75.2,29.89,SW,225,6.9,6.9,78,0.00,FEW,,0.23,WeatherDisplay:10.37,2013-09-11 19:35:00,
2013-09-11 15:40:00,82.9,74.9,29.89,SW,225,8.1,8.1,77,0.00,FEW,,0.23,WeatherDisplay:10.37,2013-09-11 19:40:00,
2013-09-11 15:45:00,83.1,75.1,29.89,SSW,202,9.4,9.4,77,0.00,FEW,,0.23,WeatherDisplay:10.37,2013-09-11 19:45:00,
2013-09-11 15:50:00,83.1,75.1,29.92,SW,225,6.9,6.9,77,0.00,FEW,,0.23,WeatherDisplay:10.37,2013-09-11 19:50:00,
2013-09-11 15:55:00,83.5,75.1,29.92,SW,225,5.8,5.8,76,0.00,FEW,,0.23,WeatherDisplay:10.37,2013-09-11 19:55:00,
2013-09-11 16:00:00,84.2,75.8,29.91,WSW,248,4.6,4.6,76,0.00,FEW,,0.23,WeatherDisplay:10.37,2013-09-11 20:00:00,
2013-09-11 16:05:00,84.9,75.7,29.91,SSW,202,5.8,5.8,74,0.00,OVC,,0.23,WeatherDisplay:10.37,2013-09-11 20:05:00,
2013-09-11 16:10:00,83.1,74.7,29.92,West,270,4.7,4.7,76,0.00,OVC,,0.23,WeatherDisplay:10.37,2013-09-11 20:10:00,
2013-09-11 16:15:00,79.0,71.6,29.92,SSW,202,10.4,10.4,78,0.00,OVC,,0.23,WeatherDisplay:10.37,2013-09-11 20:15:00,
2013-09-11 16:20:00,77.0,70.4,29.92,ESE,112,8.1,8.1,80,0.00,OVC,,0.23,WeatherDisplay:10.37,2013-09-11 20:20:00,
2013-09-11 16:25:00,76.5,70.2,29.91,ESE,112,5.8,5.8,81,0.00,OVC,,0.23,WeatherDisplay:10.37,2013-09-11 20:25:00,
2013-09-11 16:30:00,75.7,69.5,29.91,ESE,112,6.3,6.3,81,0.00,OVC,,0.23,WeatherDisplay:10.37,2013-09-11 20:30:00,
2013-09-11 16:35:00,76.1,69.8,29.91,SSE,158,9.2,9.2,81,0.00,OVC,,0.23,WeatherDisplay:10.37,2013-09-11 20:35:00,
2013-09-11 16:40:00,77.2,70.5,29.91,ESE,112,5.8,5.8,80,0.00,OVC,,0.23,WeatherDisplay:10.37,2013-09-11 20:40:00,
2013-09-11 16:45:00,76.8,70.5,29.91,SE,135,5.8,5.8,81,0.04,RA,,0.27,WeatherDisplay:10.37,2013-09-11 20:45:00,
2013-09-11 16:50:00,75.2,69.3,29.90,ESE,112,4.6,4.6,82,0.09,RA,,0.32,WeatherDisplay:10.37,2013-09-11 20:50:00,
2013-09-11 16:55:00,74.7,69.2,29.90,ESE,112,4.6,4.6,83,0.10,RA,,0.33,WeatherDisplay:10.37,2013-09-11 20:55:00,
2013-09-11 17:00:00,74.8,69.6,29.89,ESE,112,5.8,5.8,84,0.10,RA,,0.33,WeatherDisplay:10.37,2013-09-11 21:00:00,
2013-09-11 17:05:00,75.0,69.8,29.89,ESE,112,4.6,4.6,84,0.10,-RA,,0.33,WeatherDisplay:10.37,2013-09-11 21:05:00,
2013-09-11 17:10:00,75.2,70.0,29.89,ESE,112,3.5,3.5,84,0.10,-RA,,0.33,WeatherDisplay:10.37,2013-09-11 21:10:00,
2013-09-11 17:15:00,75.4,70.2,29.88,SSE,158,1.7,1.7,84,0.10,-RA,,0.33,WeatherDisplay:10.37,2013-09-11 21:15:00,
2013-09-11 17:20:00,75.4,69.9,29.88,SE,135,3.5,3.5,83,0.10,-RA,,0.33,WeatherDisplay:10.37,2013-09-11 21:20:00,
2013-09-11 17:25:00,75.7,70.2,29.87,NNE,22,1.1,1.4,83,0.10,-RA,,0.33,WeatherDisplay:10.37,2013-09-11 21:25:00,
2013-09-11 17:30:00,76.1,70.9,29.87,WSW,248,2.3,2.3,84,0.10,-RA,,0.33,WeatherDisplay:10.37,2013-09-11 21:30:00,
2013-09-11 17:35:00,75.9,71.4,29.89,WSW,248,2.3,2.3,86,0.10,-RA,,0.33,WeatherDisplay:10.37,2013-09-11 21:35:00,
2013-09-11 17:40:00,75.9,70.7,29.89,SSW,202,1.7,1.7,84,0.10,-RA,,0.33,WeatherDisplay:10.37,2013-09-11 21:40:00,
2013-09-11 17:45:00,75.0,70.2,29.89,ESE,112,5.8,5.8,85,0.09,-RA,,0.33,WeatherDisplay:10.37,2013-09-11 21:45:00,
2013-09-11 17:50:00,75.0,70.2,29.87,WSW,248,4.2,4.2,85,0.01,-RA,,0.33,WeatherDisplay:10.37,2013-09-11 21:50:00,
2013-09-11 17:55:00,75.4,70.6,29.87,West,270,1.1,1.1,85,0.00,-RA,,0.33,WeatherDisplay:10.37,2013-09-11 21:55:00,
2013-09-11 18:00:00,76.3,71.5,29.89,WSW,248,4.6,4.6,85,0.00,-RA,,0.33,WeatherDisplay:10.37,2013-09-11 22:00:00,
2013-09-11 18:05:00,77.4,72.2,29.89,South,180,1.1,0.0,84,0.00,-RA,,0.33,WeatherDisplay:10.37,2013-09-11 22:05:00,
2013-09-11 18:10:00,77.9,72.0,29.89,SE,135,2.3,2.3,82,0.00,-RA,,0.33,WeatherDisplay:10.37,2013-09-11 22:10:00,
2013-09-11 18:15:00,78.4,72.1,29.89,ESE,112,3.5,3.5,81,0.00,-RA,,0.33,WeatherDisplay:10.37,2013-09-11 22:15:00,
2013-09-11 18:20:00,78.1,71.8,29.89,NNE,22,4.6,4.6,81,0.00,-RA,,0.33,WeatherDisplay:10.37,2013-09-11 22:20:00,
2013-09-11 18:25:00,77.5,71.2,29.87,East,90,3.5,3.5,81,0.00,-RA,,0.33,WeatherDisplay:10.37,2013-09-11 22:25:00,
2013-09-11 18:30:00,77.9,71.6,29.87,ESE,112,3.5,3.5,81,0.00,-RA,,0.33,WeatherDisplay:10.37,2013-09-11 22:30:00,
2013-09-11 18:35:00,77.7,71.4,29.87,SE,135,3.5,3.5,81,0.00,CLR,,0.33,WeatherDisplay:10.37,2013-09-11 22:35:00,
2013-09-11 18:40:00,77.7,71.0,29.87,WSW,248,3.5,3.5,80,0.00,CLR,,0.33,WeatherDisplay:10.37,2013-09-11 22:40:00,
2013-09-11 18:45:00,78.3,71.6,29.87,SSW,202,1.1,0.0,80,0.00,CLR,,0.33,WeatherDisplay:10.37,2013-09-11 22:45:00,
2013-09-11 18:50:00,78.3,71.6,29.87,East,90,0.0,0.0,80,0.00,CLR,,0.33,WeatherDisplay:10.37,2013-09-11 22:50:00,
2013-09-11 18:55:00,78.1,71.4,29.87,SW,225,3.5,3.5,80,0.00,CLR,,0.33,WeatherDisplay:10.37,2013-09-11 22:55:00,
2013-09-11 19:00:00,77.9,71.2,29.86,WSW,248,0.0,0.0,80,0.00,CLR,,0.33,WeatherDisplay:10.37,2013-09-11 23:00:00,
2013-09-11 19:05:00,77.7,71.0,29.86,WSW,248,0.0,0.0,80,0.00,CLR,,0.33,WeatherDisplay:10.37,2013-09-11 23:05:00,
2013-09-11 19:10:00,77.5,71.9,29.88,WSW,248,2.3,2.3,83,0.00,CLR,,0.33,WeatherDisplay:10.37,2013-09-11 23:10:00,
2013-09-11 19:15:00,76.6,71.0,29.88,SW,225,0.0,0.0,83,0.00,CLR,,0.33,WeatherDisplay:10.37,2013-09-11 23:15:00,
2013-09-11 19:20:00,76.3,70.8,29.88,WSW,248,2.7,2.7,83,0.00,CLR,,0.33,WeatherDisplay:10.37,2013-09-11 23:20:00,
2013-09-11 19:25:00,75.9,70.7,29.88,WSW,248,3.5,3.5,84,0.00,CLR,,0.33,WeatherDisplay:10.37,2013-09-11 23:25:00,
2013-09-11 19:30:00,75.4,70.6,29.88,West,270,3.2,3.2,85,0.00,CLR,,0.33,WeatherDisplay:10.37,2013-09-11 23:30:00,
2013-09-11 19:35:00,75.0,70.2,29.88,WSW,248,3.5,3.5,85,0.00,CLR,,0.33,WeatherDisplay:10.37,2013-09-11 23:35:00,
2013-09-11 19:40:00,74.8,70.0,29.88,SW,225,3.5,3.5,85,0.00,CLR,,0.33,WeatherDisplay:10.37,2013-09-11 23:40:00,
2013-09-11 19:45:00,74.8,70.0,29.88,SW,225,3.5,3.5,85,0.00,CLR,,0.33,WeatherDisplay:10.37,2013-09-11 23:45:00,
2013-09-11 19:50:00,74.7,69.9,29.87,West,270,2.7,2.7,85,0.00,CLR,,0.33,WeatherDisplay:10.37,2013-09-11 23:50:00,
2013-09-11 19:55:00,74.5,69.7,29.87,SW,225,3.7,3.7,85,0.00,CLR,,0.33,WeatherDisplay:10.37,2013-09-11 23:55:00,
2013-09-11 20:00:00,74.1,69.6,29.86,WSW,248,3.5,3.5,86,0.00,CLR,,0.33,WeatherDisplay:10.37,2013-09-12 00:00:00,
2013-09-11 20:05:00,74.1,69.6,29.86,SW,225,3.5,3.5,86,0.00,CLR,,0.33,WeatherDisplay:10.37,2013-09-12 00:05:00,
2013-09-11 20:10:00,74.1,69.6,29.86,SSW,202,3.5,3.5,86,0.00,CLR,,0.33,WeatherDisplay:10.37,2013-09-12 00:10:00,
2013-09-11 20:15:00,73.9,69.8,29.87,SW,225,4.7,4.7,87,0.00,CLR,,0.33,WeatherDisplay:10.37,2013-09-12 00:15:00,
2013-09-11 20:20:00,73.9,69.8,29.87,WSW,248,4.6,4.6,87,0.00,CLR,,0.33,WeatherDisplay:10.37,2013-09-12 00:20:00,
2013-09-11 20:25:00,73.9,69.8,29.87,SW,225,4.6,4.6,87,0.00,CLR,,0.33,WeatherDisplay:10.37,2013-09-12 00:25:00,
2013-09-11 20:30:00,73.9,69.4,29.87,SSW,202,3.7,3.7,86,0.00,CLR,,0.33,WeatherDisplay:10.37,2013-09-12 00:30:00,
2013-09-11 20:35:00,73.9,69.4,29.86,West,270,4.6,4.6,86,0.00,CLR,,0.33,WeatherDisplay:10.37,2013-09-12 00:35:00,
2013-09-11 20:40:00,73.8,69.0,29.86,NNW,338,3.5,3.5,85,0.00,CLR,,0.33,WeatherDisplay:10.37,2013-09-12 00:40:00,
2013-09-11 20:45:00,73.9,68.8,29.86,SSW,202,5.8,5.8,84,0.00,CLR,,0.33,WeatherDisplay:10.37,2013-09-12 00:45:00,
2013-09-11 20:50:00,73.9,68.8,29.86,SSW,202,3.7,3.7,84,0.00,CLR,,0.33,WeatherDisplay:10.37,2013-09-12 00:50:00,
2013-09-11 20:55:00,73.8,69.0,29.86,WSW,248,3.5,3.5,85,0.00,CLR,,0.33,WeatherDisplay:10.37,2013-09-12 00:55:00,
2013-09-11 21:00:00,73.6,68.8,29.87,SSW,202,3.5,3.5,85,0.00,CLR,,0.33,WeatherDisplay:10.37,2013-09-12 01:00:00,
2013-09-11 21:05:00,73.6,68.8,29.87,West,270,3.5,3.5,85,0.00,CLR,,0.33,WeatherDisplay:10.37,2013-09-12 01:05:00,
2013-09-11 21:10:00,73.6,68.8,29.87,SW,225,3.5,3.5,85,0.00,CLR,,0.33,WeatherDisplay:10.37,2013-09-12 01:10:00,
2013-09-11 21:15:00,73.4,68.6,29.88,WSW,248,2.7,2.7,85,0.00,CLR,,0.33,WeatherDisplay:10.37,2013-09-12 01:15:00,
2013-09-11 21:20:00,73.6,68.5,29.88,SW,225,5.8,5.8,84,0.00,CLR,,0.33,WeatherDisplay:10.37,2013-09-12 01:20:00,
2013-09-11 21:25:00,73.6,68.5,29.88,SW,225,4.6,4.6,84,0.00,CLR,,0.33,WeatherDisplay:10.37,2013-09-12 01:25:00,
2013-09-11 21:30:00,73.4,68.3,29.88,WSW,248,4.6,4.6,84,0.00,CLR,,0.33,WeatherDisplay:10.37,2013-09-12 01:30:00,
2013-09-11 21:35:00,73.2,68.1,29.88,WSW,248,3.5,3.5,84,0.00,CLR,,0.33,WeatherDisplay:10.37,2013-09-12 01:35:00,
2013-09-11 21:40:00,73.2,68.1,29.88,WSW,248,4.6,4.6,84,0.00,CLR,,0.33,WeatherDisplay:10.37,2013-09-12 01:40:00,
2013-09-11 21:45:00,73.2,68.1,29.88,WSW,248,5.8,5.8,84,0.00,CLR,,0.33,WeatherDisplay:10.37,2013-09-12 01:45:00,
2013-09-11 21:50:00,73.2,68.1,29.89,SW,225,5.8,5.8,84,0.00,CLR,,0.33,WeatherDisplay:10.37,2013-09-12 01:50:00,
2013-09-11 21:55:00,73.4,68.3,29.89,SW,225,5.8,5.8,84,0.00,CLR,,0.33,WeatherDisplay:10.37,2013-09-12 01:55:00,
2013-09-11 22:00:00,73.4,68.3,29.89,SSW,202,3.5,3.5,84,0.00,CLR,,0.33,WeatherDisplay:10.37,2013-09-12 02:00:00,
2013-09-11 22:05:00,73.4,68.3,29.89,WSW,248,3.5,3.5,84,0.00,CLR,,0.33,WeatherDisplay:10.37,2013-09-12 02:05:00,
2013-09-11 22:10:00,73.2,68.1,29.89,SSW,202,2.7,2.7,84,0.00,CLR,,0.33,WeatherDisplay:10.37,2013-09-12 02:10:00,
2013-09-11 22:15:00,73.0,67.9,29.89,SW,225,3.5,3.5,84,0.00,CLR,,0.33,WeatherDisplay:10.37,2013-09-12 02:15:00,
2013-09-11 22:20:00,73.0,68.6,29.89,WSW,248,4.6,4.6,86,0.00,CLR,,0.33,WeatherDisplay:10.37,2013-09-12 02:20:00,
2013-09-11 22:25:00,72.7,67.9,29.89,SW,225,4.6,4.6,85,0.00,CLR,,0.33,WeatherDisplay:10.37,2013-09-12 02:25:00,
2013-09-11 22:30:00,72.9,68.1,29.89,SW,225,2.3,2.6,85,0.00,CLR,,0.33,WeatherDisplay:10.37,2013-09-12 02:30:00,
2013-09-11 22:35:00,72.9,68.1,29.89,West,270,2.3,2.3,85,0.00,CLR,,0.33,WeatherDisplay:10.37,2013-09-12 02:35:00,
2013-09-11 22:40:00,72.9,68.1,29.89,East,90,1.1,1.1,85,0.00,CLR,,0.33,WeatherDisplay:10.37,2013-09-12 02:40:00,
2013-09-11 22:45:00,72.7,68.3,29.89,ESE,112,1.1,1.1,86,0.00,CLR,,0.33,WeatherDisplay:10.37,2013-09-12 02:45:00,
2013-09-11 22:50:00,72.9,68.1,29.88,ENE,68,0.0,0.0,85,0.00,CLR,,0.33,WeatherDisplay:10.37,2013-09-12 02:50:00,
2013-09-11 22:55:00,72.9,68.1,29.88,WSW,248,2.3,2.3,85,0.00,CLR,,0.33,WeatherDisplay:10.37,2013-09-12 02:55:00,
2013-09-11 23:00:00,72.5,68.1,29.88,SSW,202,2.3,2.3,86,0.00,CLR,,0.33,WeatherDisplay:10.37,2013-09-12 03:00:00,
2013-09-11 23:05:00,72.5,68.1,29.88,SW,225,0.0,0.0,86,0.00,CLR,,0.33,WeatherDisplay:10.37,2013-09-12 03:05:00,
2013-09-11 23:10:00,72.1,68.0,29.88,SW,225,2.3,2.3,87,0.00,CLR,,0.33,WeatherDisplay:10.37,2013-09-12 03:10:00,
2013-09-11 23:15:00,72.0,67.9,29.88,SW,225,2.3,2.3,87,0.00,CLR,,0.33,WeatherDisplay:10.37,2013-09-12 03:15:00,
2013-09-11 23:20:00,72.0,67.9,29.88,SW,225,1.1,0.0,87,0.00,CLR,,0.33,WeatherDisplay:10.37,2013-09-12 03:20:00,
2013-09-11 23:25:00,72.0,67.9,29.87,SSW,202,0.0,0.0,87,0.00,CLR,,0.33,WeatherDisplay:10.37,2013-09-12 03:25:00,
2013-09-11 23:30:00,71.8,67.7,29.87,West,270,0.0,0.0,87,0.00,CLR,,0.33,WeatherDisplay:10.37,2013-09-12 03:30:00,
2013-09-11 23:35:00,71.8,67.7,29.87,West,270,2.3,2.3,87,0.00,CLR,,0.33,WeatherDisplay:10.37,2013-09-12 03:35:00,
2013-09-11 23:40:00,71.8,68.1,29.87,SSW,202,2.3,2.3,88,0.00,CLR,,0.33,WeatherDisplay:10.37,2013-09-12 03:40:00,
2013-09-11 23:45:00,71.8,68.1,29.87,SSW,202,3.5,3.5,88,0.00,CLR,,0.33,WeatherDisplay:10.37,2013-09-12 03:45:00,
2013-09-11 23:50:00,71.8,68.1,29.86,SSW,202,2.3,2.3,88,0.00,CLR,,0.33,WeatherDisplay:10.37,2013-09-12 03:50:00,
2013-09-11 23:55:00,71.8,68.1,29.86,WSW,248,1.1,0.0,88,0.00,CLR,,0.33,WeatherDisplay:10.37,2013-09-12 03:55:00,